Location: La Brionne
(46.1728°N, 1.7849°E)
Time: 06:47:01
(UTC+00:00)

Cosmos 1331 Rocket - Pass Details

Date: 16 June 2021
Orbit: 749 x 778 km, 74.0° (Epoch: 02 August)

Event Time Altitude Azimuth Distance (km) Brightness Sun altitude
Exits shadow 21:22:12 - 185° (S) 2,354 6.1 -12.4°
Reaches altitude 10° 21:22:22 10° 184° (S) 2,291 6.0 -12.5°
Maximum altitude 21:27:28 58° 107° (ESE) 891 4.1 -13.0°
Drops below altitude 10° 21:32:39 10° 29° (NNE) 2,326 6.9 -13.5°
Sets 21:35:04 0° 25° (NNE) 3,261 7.7 -13.7°
